DECAYED

CZ-6A DEB, 54946 (Decayed)

Orbit data source: Space-Track

CZ-6A DEB, 54946 was space debris in SSO originally from a launch on Fri, 11 Nov 2022 UTC launched from the Taiyaun Space Center, China (TSC). Debris objects in space refer to the collection of defunct objects orbiting the Earth. Examples of debris include non-operational satellites, rocket bodies, and fragments generated from explosions, collisions, or faulty payload assembly.

Not visible in the next 10 days
Identifier
54946, 2022-151SK
Orbit
Decayed
Country
Flag of CNCN / PRC
Related business
Manufacturer
SAST
Mission
Decayed spacecraft
Bus & Motor
Unknown
Mass
Unknown
Launch date (UTC)
2022-11-11 (4 years ago)
Launch vehicle
Unknown
Launch site
Taiyaun Space Center, China (TSC)
Object type
Payload
Rocket body
Debris
Shape & HBR
Unknown shape, 0.1 m
Radar Cross Section
Medium (>0.1 m² and <1 m²)

Expand to show TLE details & history
Last TLE update: 9 months ago

TLE from 9 months ago
0 CZ-6A DEB
1 54946U 22151SK  25279.25742673  .04837666  00000-0  23618-1 0  9991
2 54946  98.9876  35.8199 0032767 326.5417  33.3773 15.77817241 82598
Epoch: 2025-10-06T06:10Z
TLE epoch observation values (Epoch: 2025-10-06T06:10:41.669Z)
Latitude
-0.00007°
Longitude
-72.01698°
Altitude
321.388 km
Speed
7.726 km/s
True Right ascension
02h 23m 16s
True Declination
0° 00' 00"
Sunlit
Object was in full shadow at epoch
Visualization orbit readout
Latitude
Unknown
Longitude
Unknown
Altitude
Unknown
Speed
Unknown
Apparent Right ascension
Unknown
Apparent Declination
Unknown
Sunlit
N/A
Visualization observer readout
Local Sidereal Time
21:38:17
Azimuth
Unknown
Elevation
Unknown
Doppler factor
Unknown
Orbital elements
Apogee altitude
355.584 km
Perigee altitude
311.6 km
Semi-major axis
6,711.729 km
Eccentricity
0.00328
Inclination
98.9876°
RAAN
35.8199°
Arg. of periapsis
326.5417°
True anomaly
33.58458°
Mean anomaly
33.3773°
Eccentric anomaly
33.48087°
Mean motion
3.94722 °/min
Orbital period
91.2 mins
BSTAR
0.023618
Loading maneuver chart data...
Computing Atmospheric mass density...
Loading historical data...
Loading historical data...
Loading historical data...
Loading historical data...
Loading historical data...
Loading historical data...
Loading historical data...

Documentation

Showing up to 5 results
|